Location: Napoli
(40.8639°N, 14.2562°E)
Time: 18:50:18
(UTC+02:00)

ISS - Pass Details

Date: 10 October 2017
Orbit: 401 x 408 km, 51.6° (Epoch: 19 October)

Event Time Altitude Azimuth Distance (km) Brightness Sun altitude
Rises 19:30:45 0° 311° (NW) 2,326 0.9 -12.2°
Reaches altitude 10° 19:33:10 10° 328° (NNW) 1,466 -0.5 -12.7°
Maximum altitude 19:35:46 21° 21° (NNE) 963 -2.1 -13.2°
Enters shadow 19:36:55 18° 50° (NE) 1,078 -2.1 -13.4°
